www.pogodaiklimat.ru

Погода и климат >> Архив погоды >> Румыния >> Адамклиси


ПОГОДА в Адамклиси

  • Прогноз погоды в Адамклиси
  • Монитор погоды в Адамклиси

АРХИВ ПОГОДЫ в Адамклиси

Время (UTC), дата Ветер
(напр.,м/с)
 
Видим.   Явления Облачность Т
(С)
Тd
(С)
f
(%)
Тe
(С)
Тes
(С)
Комфортность P
(гПа)
Po
(гПа)
Тmin
(С)
Tmax
(С)
R
(мм)
R24
(мм)
S
(см)
12 9.07 ЮЗ 1-3
{3}
10 км 9/4 600 м
[Cu med, cong Cs]
+26.8 +15.6 50 +30 +39 душно 1011.6 993.4
15 9.07 СЗ 1-2
{3}
10 км 10/6 600 м
[Cb cap Ac As]
+25.7 +17.6 61 +30 +31 душно 1011.2 993.0
18 9.07 З 1-2
{3}
10 км 5/5 600 м
[Sc diur, vesp]
+22.8 +13.9 57 +26 +26 жарко 1010.7 992.3 +21.6 +28.2
21 9.07 -1
{1}
н/о н/о +19.4 +13.5 69 1011.6 992.9
00 10.07 ЮЗ 1-1
{1}
н/о н/о +18.3 +13.0 71 +20 +20 1011.1 992.4
03 10.07 ЮЗ 1-1
{2}
н/о н/о +16.7 +13.8 83 +18 +18 1011.0 992.2
06 10.07 ЮЗ 1-1
{2}
10 км 8/0
[Ac As]
+19.1 +13.6 70 +21 +25 комфорт 1010.3 991.7 +15.7 +22.7
09 10.07 СЗ 1-2
{2}
10 км 5/0
[Ac lent]
+25.0 +8.3 35 +25 +38 комфорт 1010.2 991.9
12 10.07 Ю 2-4
{5}
10 км 6/6 600 м
[Cu med, cong]
+26.6 +7.5 30 +26 +33 жарко 1008.9 990.7
15 10.07 ЮЗ 2-3
{3}
10 км 10/6 600 м
[Cb cap Ac As]
+24.9 +9.4 37 +26 +26 жарко 1007.9 989.7
18 10.07 ЮЗ 1-2
{3}
10 км {ливн. осадки} 10/6 600 м
[Cb cap Ac As]
+19.1 +16.4 84 +22 +22 комфорт 1008.9 990.3 +18.4 +27.7 1
21 10.07 Ю 1-2
{2}
н/о н/о +18.1 +16.0 88 +19 +19 1009.6 990.9
00 11.07 З 1-2
{5}
н/о н/о +14.6 +12.8 89 +15 +15 1010.5 991.6
03 11.07 З 1-1
{2}
н/о н/о +12.7 +11.7 94 +13 +13 1010.3 991.3
06 11.07 З 1-2
{3}
10 км ясно +16.9 +12.6 76 +18 +26 1011.0 992.2 +12.6 +19.1
09 11.07 З 2-5
{5}
10 км 3/3 600 м
[Cu med, cong]
+20.7 +9.8 50 +23 +35 комфорт 1010.6 992.1
12 11.07 З 2-4
{5}
10 км 6/6 600 м
[Cb calv]
+22.7 +8.5 40 +24 +30 комфорт 1009.9 991.5
15 11.07 ЮЗ 2-4
{4}
10 км 6/6 600 м
[Cb calv]
+23.3 +8.0 37 +24 +26 комфорт 1009.5 991.2
18 11.07 ЮЗ 1-1
{2}
10 км 5/5 600 м
[Sc diur, vesp]
+20.9 +7.8 43 +23 +23 комфорт 1010.1 991.6 +16.9 +25.1
21 11.07 В 1-1
{1}
н/о н/о +16.9 +9.5 62 +18 +18 1011.1 992.4
00 12.07 ЮЗ 2-4
{4}
н/о н/о +16.0 +10.7 71 +16 +16 1011.9 993.1
03 12.07 З 1-2
{2}
н/о н/о +13.0 +12.4 96 +13 +13 1011.1 992.0 2
06 12.07 ЮЗ 1-2
{2}
10 км {ливн. осадки} 6/0
[Ac As]
+15.6 +13.1 85 +16 +21 1012.3 993.4 +12.9 +20.9 0.2
09 12.07 ЮЗ 1-2
{3}
10 км 6/6 600 м
[Cu med, cong]
+20.0 +12.6 62 +23 +31 комфорт 1012.3 993.7
12 12.07 ЮЗ 1-3
{3}
10 км 8/8 600 м
[Cu med, cong]
+20.9 +9.8 49 +24 +27 комфорт 1011.8 993.2
15 12.07 З 1-2
{3}
10 км 4/4 600 м
[Cu med, cong]
+24.0 +7.1 34 +24 +27 комфорт 1011.2 992.9
18 12.07 ЮЗ 1-1
{2}
10 км ясно +20.6 +9.3 48 +23 +23 комфорт 1011.8 993.3 +15.7 +24.3
21 12.07 ЮВ 1-1
{1}
н/о н/о +16.1 +9.9 67 +17 +17 1012.7 993.9
00 13.07 ЮВ 1-1
{2}
н/о н/о +14.2 +9.3 72 +15 +15 1012.5 993.5
03 13.07 ЮВ 1-1
{1}
н/о н/о +13.8 +11.5 86 +14 +14 1012.2 993.2
06 13.07 Ю 1-1
{1}
10 км ясно +20.7 +12.2 58 +24 +32 комфорт 1012.2 993.6 +13.3 +20.7
09 13.07 штиль 0-3
{3}
10 км 5/3 600 м
[Cu med, cong Ci fib]
+25.7 +9.1 35 +26 +42 жарко 1011.5 993.2
12 13.07 Ю 1-2
{2}
10 км 6/6 600 м
[Cb calv]
+25.0 +7.4 32 +25 +33 комфорт 1010.5 992.2
15 13.07 В 3-4
{4}
10 км 8/8 600 м
[Cb calv]
+25.2 +11.7 43 +27 +27 жарко 1009.5 991.3
18 13.07 В 3-4
{5}
10 км 6/6 600 м
[Cb calv]
+22.0 +11.7 52 +24 +24 комфорт 1009.6 991.2 +20.7 +28.0
21 13.07 В 2-3
{3}
н/о н/о +19.4 +13.2 67 +21 +21 комфорт 1009.5 990.9
00 14.07 В 2-2
{2}
н/о н/о +17.8 +13.7 77 +18 +18 1008.7 990.0
03 14.07 В 1-2
{2}
н/о н/о +17.4 +14.6 84 +18 +18 1008.0 989.3
06 14.07 В 2-3
{3}
10 км 10/0
[Ac As]
+19.5 +15.1 76 +22 +24 комфорт 1007.7 989.2 +17.0 +22.0
09 14.07 В 3-6
{6}
10 км ливневой дождь 10/5 600 м
[Cb cap Ac As]
+18.9 +12.0 64 +20 +22 1007.7 989.1 0.6
12 14.07 Ю 2-3
{3}
10 км в посл. час ливневой дождь 10/10 600 м
[Cb cap]
+16.7 +15.3 91 +17 +17 1008.1 989.4 3
15 14.07 З 1-1
{2}
10 км {ливн. осадки} 9/5 600 м
[Cb cap Ac cuf]
+19.4 +16.0 81 +22 +24 комфорт 1007.9 989.4 0.6
18 14.07 штиль 0-1
{1}
10 км {ливн. осадки} 8/4 600 м
[Cb cap Ac cuf]
+18.4 +15.8 85 +19 +19 1007.9 989.3 +16.3 +24.5
21 14.07 ЮЗ 1-1
{2}
н/о н/о +16.3 +15.3 94 +17 +17 1008.4 989.6
00 15.07 ЮЗ 1-1
{2}
н/о н/о +15.2 +15.1 99 +16 +16 1008.1 989.2
03 15.07 ЮЗ 1-2
{2}
н/о н/о +14.1 +14.1 100 +14 +14 1008.2 989.3
06 15.07 ЮЗ 1-3
{3}
10 км ясно +16.7 +15.5 93 +18 +26 1008.6 989.9 +13.6 +18.4
09 15.07 ЮЗ 2-4
{4}
10 км 3/3 600 м
[Cu med, cong]
+22.0 +15.3 66 +26 +38 душно 1008.4 990.0
12 15.07 ЮЗ 1-3
{3}
10 км 6/6 600 м
[Cb calv]
+25.2 +12.6 45 +27 +34 жарко 1007.9 989.7
15 15.07 СВ 2-3
{4}
10 км 9/5 600 м
[Cb cap Ac cuf]
+22.1 +10.9 49 +24 +25 комфорт 1008.7 990.3
18 15.07 З 1-2
{3}
10 км 8/4 600 м
[Cb calv Ac cuf]
+18.6 +12.4 67 +20 +20 1009.6 991.0 +16.7 +27.0
21 15.07 штиль 0-1
{2}
н/о н/о +17.0 +14.4 85 +17 +17 1011.0 992.2
00 16.07 ЮЗ 1-2
{2}
н/о н/о +16.2 +16.0 99 +17 +17 1010.7 991.9
03 16.07 ЮЗ 1-2
{2}
н/о н/о +14.4 +14.4 100 +15 +15 1010.9 991.9
06 16.07 ЮЗ 1-2
{2}
10 км ясно +17.6 +15.3 86 +19 +27 1011.2 992.4 +14.0 +18.6
09 16.07 З 1-3
{4}
10 км 5/3 600 м
[Cu med, cong Ci fib]
+23.1 +12.6 52 +26 +40 жарко 1010.7 992.3

 

Местоположение метеостанции Адамклиси (Румыния): широта 44.08 долгота 27.97 высота над уровнем моря 159 м.

В архиве по умолчанию представлена погода в Адамклиси за последнюю неделю. Архивные данные за месяц целиком и за предыдущие месяцы, начиная с января 2011 года, Вы можете получить, выбрав интересующий диапазон дат из раскрывающегося списка и нажав кнопку "Ввод!".


*Определитесь, кто Вы:
робот инопланетянин человек

Внимание! Время в таблицах - всемирное. Для получения местного времени необходимо прибавить поправку, которая равна 2 ч.

Смотрите также архив погоды в соседних городах и на ближайших метеорологических станциях:

Погода в Меджидии (Румыния) (31 км)
Погода в Чернаводэ (Румыния) (31 км)
Погода в Фетешти (Румыния) (34 км)
Погода в Кэлэраши (Румыния) (53 км)
Погода в Констанце (Румыния) (56 км)
Погода в Мангалии (Румыния) (57 км)
Погода в Хыршова (Румыния) (67 км)
Погода в Слобозии (Румыния) (70 км)
Погода в Коругеа (Румыния) (78 км)
Погода в Гривите (Румыния) (92 км)

Пояснения к столбцам:

Ветер - указаны скорость ветра в м/с - средняя за 10 мин, порывы в срок и между сроками (в фигурных скобках) и направление, откуда дует ветер: С - северный, СВ - северо-восточный, В - восточный, ЮВ - юго-восточный, Ю - южный, ЮЗ - юго-западный, З - западный, СЗ - северо-западный.
Видимость - горизонтальная дальность видимости в метрах или километрах. При видимости от 1 до 10 км при отсутствии осадков обычно наблюдается дымка, при ухудшении видимости до 1 км и менее - туман. В сухую погоду видимость может ухудшаться дымом, пылью или мглою.
Явления - указаны атмосферные явления, наблюдавшиеся в срок или в последний час перед сроком; фигурными скобками обозначены явления, наблюдавшиеся между сроками (за 1-3 часа до срока); квадратными скобками обозначены град или гололедные отложения с указанием их диаметра в мм.
Облачность - указаны через наклонную черту общая и нижняя облачность в баллах и высота нижней границы облаков в метрах; квадратными скобками обозначены формы облаков: Ci - перистые, Cs - перисто-слоистые, Cc - перисто-кучевые, Ac - высококучевые, As - высокослоистые, Sc - слоисто-кучевые, Ns - слоисто-дождевые, Cu - кучевые, Cb - кучево-дождевые. Подробнее классификацию облаков см. в Атласе облаков (PDF).
T - Температура воздуха - температура, измеренная на высоте 2 м над землей.
Td - Температура точки росы - температура, при понижении до которой содержащийся в воздухе водяной пар достигнет насыщения.
f - Относительная влажность воздуха - влажноcть воздуха, измеренная на высоте 2 м над землей.
Te - Эффективная температура - температура, которую ощущает одетый по сезону человек в тени. Характеристика душности погоды. При расчете учитывается влияние влажности воздуха и скорости ветра на теплоощущения человека.
Tes - Эффективная температура на солнце - температура, которую ощущает человек, с поправкой на солнечный нагрев. Характеристика знойности погоды. Зависит от высоты солнца над горизонтом, облачности и скорости ветра. Ночью, в пасмурную погоду, а также при ветре 12 м/с и более поправка равна нулю.
P - Атмосферное давление - приведенное к уровню моря атмосферное давление.
Po - Атмосферное давление - измеренное на уровне метеостанции атмосферное давление.
Tmin - Минимальная температура - минимум температуры воздуха на высоте 2 м над землей.
Tmax - Максимальная температура - максимум температуры воздуха на высоте 2 м над землей.
R - Количество осадков - Количество выпавших осадков за период времени, мм. При наведении курсора мыши на число - период времени, за который выпало указанное количество осадков.
R24 - Количество осадков - Количество выпавших осадков за 24 часа, мм.
S - Снежный покров - Высота снежного покрова, см. При наведении курсора мыши на число - состояние снежного покрова и степень покрытия местности в баллах.